{"data":{"norad_id":53925,"intl_designator":"2022-119AR","name":"STARLINK-5011","alt_names":[],"object_type":"PAYLOAD","status":"ACTIVE","operator":null,"country":"US","launch_date":"2022-09-24","launch_site_code":"AFETR","launch_vehicle":null,"mission":null,"orbit_class":"UNKNOWN","rcs_meters":null,"size_class":null,"mass_kg":null,"dimensions":null,"purposes":["comms"],"wikipedia_slug":null,"has_3d_model":false,"image_url":null,"decayed_at":null,"tle_current":{"epoch":"2026-05-24T19:39:57.940704Z","epoch_age_seconds":94257,"freshness":"FRESH","line1":"1 53925U 22119AR  26144.81942061  .00000599  00000+0  55701-4 0  9991","line2":"2 53925  53.2139 331.9627 0001452  92.6752 267.4407 15.08835859203325","mean_motion":15.08835859,"eccentricity":0.0001452,"inclination_deg":53.2139,"raan_deg":331.9627,"arg_perigee_deg":92.6752,"mean_anomaly_deg":267.4407,"bstar":5.5701e-5,"rev_number":20332,"period_min":95.437816606134,"perigee_km":538.75156830309,"apogee_km":540.76052444375,"semimajor_km":6917.8930463734,"source":"CELESTRAK","updated_at":"2026-05-25T13:38:17.614163Z"}}}